DW3209 Weather Reports


time (UTC)temp
F
wind
direction
speed
knots
gust
knots
rain 1hr
in
rain 24hr
in
rain mn
in
humidity
%
barometer
mb
20210620094246 54 136 0.0 0.0 0.00 0.00 0.00 75 1015.3
20210620092246 55 136 0.0 0.0 0.00 0.00 0.00 74 1015.3
20210620091246 55 119 0.0 0.0 0.00 0.00 0.00 73 1015.3
20210620090247 55 119 0.0 0.0 0.00 0.00 0.00 72 1015.3
20210620083246 56 119 0.0 0.0 0.00 0.00 0.00 70 1015.3
20210620082246 56 119 0.0 0.0 0.00 0.00 0.00 69 1015.3
20210620081246 56 119 0.0 0.0 0.00 0.00 0.00 67 1016.4
20210620080246 57 119 0.0 0.0 0.00 0.00 0.00 66 1016.4
20210620074246 58 119 0.0 0.0 0.00 0.00 0.00 63 1016.4
20210620073246 58 119 0.0 0.0 0.00 0.00 0.00 62 1016.4
20210620072247 58 119 0.0 0.0 0.00 0.00 0.00 58 1016.4
20210620071246 59 119 0.0 0.0 0.00 0.00 0.00 55 1016.4
20210620070246 60 119 0.0 0.0 0.00 0.00 0.00 54 1016.4
20210620065249 61 119 0.0 0.0 0.00 0.00 0.00 54 1016.4
20210620064246 61 138 0.0 0.0 0.00 0.00 0.00 54 1016.4
20210620062249 62 140 0.0 0.0 0.00 0.00 0.00 52 1016.4
20210620061249 62 140 0.0 0.0 0.00 0.00 0.00 52 1016.4
20210620055246 63 138 0.0 0.0 0.00 0.00 0.00 48 1016.4
20210620054246 63 138 0.0 0.0 0.00 0.00 0.00 46 1016.4
20210620051246 64 252 0.0 0.0 0.00 0.00 0.00 43 1017.6
20210620050246 65 252 0.0 0.0 0.00 0.00 0.00 41 1017.6
20210620045249 65 252 0.0 0.0 0.00 0.00 0.00 40 1017.6
20210620043246 65 252 0.0 0.0 0.00 0.00 0.00 37 1017.6
20210620041246 65 248 0.0 0.0 0.00 0.00 0.00 36 1017.6
20210620040246 66 233 0.0 0.0 0.00 0.00 0.00 35 1017.6
20210620035249 67 233 0.0 0.0 0.00 0.00 0.00 34 1017.6
20210620032246 69 233 0.0 0.0 0.00 0.00 0.00 32 1016.4
20210620031246 69 233 0.0 0.0 0.00 0.00 0.00 31 1016.4
20210620030246 71 136 0.0 0.0 0.00 0.00 0.00 29 1016.4
20210620024246 72 278 0.0 0.0 0.00 0.00 0.00 25 1016.4
20210620022246 74 255 0.0 0.0 0.00 0.00 0.00 23 1016.4
20210620021246 74 274 0.0 0.0 0.00 0.00 0.00 23 1016.4
20210620014247 76 270 0.0 0.0 0.00 0.00 0.00 22 1016.4
20210620012246 77 49 0.0 0.0 0.00 0.00 0.00 20 1016.4
20210620011246 78 19 0.0 0.0 0.00 0.00 0.00 18 1016.4
20210620010247 78 339 0.0 0.0 0.00 0.00 0.00 15 1017.6
20210620004246 80 29 0.0 0.0 0.00 0.00 0.00 15 1017.6
20210620002246 81 44 0.0 0.0 0.00 0.00 0.00 14 1017.6
20210620000247 85 25 0.0 0.0 0.00 0.00 0.00 13 1018.7
20210619235246 85 16 0.0 0.0 0.00 0.00 0.00 13 1018.7
20210619233249 84 136 0.0 0.0 0.00 0.00 0.00 14 1018.7
20210619232246 81 141 0.0 0.0 0.00 0.00 0.00 17 1018.7
20210619225250 79 203 0.0 2.6 0.00 0.00 0.00 17 1018.7
20210619224246 79 222 0.0 3.5 0.00 0.00 0.00 17 1018.7
20210619223249 79 284 0.0 2.6 0.00 0.00 0.00 17 1018.7
20210619222249 77 120 2.6 3.5 0.00 0.00 0.00 21 1018.7
20210619215249 75 107 0.0 4.3 0.00 0.00 0.00 23 1019.9
20210619214246 73 288 0.0 3.5 0.00 0.00 0.00 25 1019.9
20210619213246 72 275 0.0 1.7 0.00 0.00 0.00 24 1021.1
20210619210246 72 207 0.0 5.2 0.00 0.00 0.00 32 1021.1
20210619203246 76 116 0.0 3.5 0.00 0.00 0.00 20 1021.1
20210619194246 80 205 0.0 2.6 0.00 0.00 0.00 23 1019.9
20210619192246 80 278 0.0 0.0 0.00 0.00 0.00 23 1019.9
20210619191246 82 278 0.0 0.0 0.00 0.00 0.00 22 1019.9
20210619185246 83 279 0.0 0.0 0.00 0.00 0.00 21 1019.9
20210619183247 83 289 0.0 0.0 0.00 0.00 0.00 21 1019.9
20210619181246 83 224 0.0 2.6 0.00 0.00 0.00 21 1019.9
20210619172246 80 282 0.0 1.7 0.00 0.00 0.00 30 1021.1
20210619170249 78 144 0.0 0.0 0.00 0.00 0.00 31 1021.1
20210619163246 75 276 0.0 0.0 0.00 0.00 0.00 36 1021.1
20210619161246 73 281 0.0 0.0 0.00 0.00 0.00 37 1021.1
20210619155246 71 284 0.0 0.0 0.00 0.00 0.00 42 1021.1
20210619152246 69 189 0.0 0.0 0.00 0.00 0.00 43 1021.1
20210619150246 68 128 0.0 0.0 0.00 0.00 0.00 47 1021.1
20210619145249 68 132 0.0 0.0 0.00 0.00 0.00 48 1021.1
20210619144246 67 203 0.0 0.0 0.00 0.00 0.00 47 1021.1
20210619142246 67 203 0.0 0.0 0.00 0.00 0.00 47 1021.1
20210619141249 67 203 0.0 0.0 0.00 0.00 0.00 47 1021.1
20210619140246 66 203 0.0 0.0 0.00 0.00 0.00 46 1022.2
20210619132246 64 203 0.0 0.0 0.00 0.00 0.00 51 1021.1
20210619130246 63 203 0.0 0.0 0.00 0.00 0.00 54 1021.1
20210619125249 63 203 0.0 0.0 0.00 0.00 0.00 52 1021.1
20210619123246 62 203 0.0 0.0 0.00 0.00 0.00 53 1021.1
20210619121249 62 203 0.0 0.0 0.00 0.00 0.00 51 1021.1
20210619120246 62 203 0.0 0.0 0.00 0.00 0.00 51 1021.1
20210619115246 62 203 0.0 0.0 0.00 0.00 0.00 50 1021.1
20210619113249 62 203 0.0 0.0 0.00 0.00 0.00 50 1021.1
20210619112246 62 203 0.0 0.0 0.00 0.00 0.00 49 1021.1
20210619111249 62 203 0.0 0.0 0.00 0.00 0.00 50 1021.1
20210619110246 62 203 0.0 0.0 0.00 0.00 0.00 49 1021.1
20210619104249 63 203 0.0 0.0 0.00 0.00 0.00 47 1022.2
20210619101249 62 203 0.0 0.0 0.00 0.00 0.00 51 1021.1
20210619100249 62 203 0.0 0.0 0.00 0.00 0.00 53 1021.1